Hot Springs, VA

2:21 PM EDT on March 29, 2017 (GMT -0400)
Ingalls

Weather History for KHSP - October, 2011

Change the Weather History Date:

Wednesday, October 12, 2011

  Actual Average Record
Temperature  
Mean Temperature 54 °F -  
Max Temperature 57 °F 57 °F 73 °F (2010)
Min Temperature 50 °F 43 °F 30 °F (1996)
Degree Days  
Heating Degree Days 12    
Growing Degree Days 4 (Base 50)    
Moisture  
Dew Point 54 °F    
Average Humidity 100    
Maximum Humidity 100    
Minimum Humidity 100    
Precipitation  
Precipitation 1.37 in - - ()
Sea Level Pressure  
Sea Level Pressure 29.97 in    
Wind  
Wind Speed 10 mph (East)    
Max Wind Speed 17 mph    
Max Gust Speed 25 mph    
Averages and records for this station are not official NWS values.
T = Trace of Precipitation, MM = Missing Value Source: NWS Daily Summary

Daily Weather History Graph

Daily Weather History Graph

Search for Another Location

Airport or City:

Trip Planner

Search our weather history database for the weather conditions in past years. The results will help you decide how hot, cold, wet, or windy it might be!

Date:

Astronomy

Oct. 12, 2011 Rise Set
Actual Time 7:24 AM EDT 6:46 PM EDT
Civil Twilight 6:58 AM EDT 7:12 PM EDT
Nautical Twilight 6:27 AM EDT 7:43 PM EDT
Astronomical Twilight 5:57 AM EDT 8:13 PM EDT
Moon 6:49 PM EDT (10/12) 7:56 AM EDT (10/12)
Length of Visible Light 12h 14m
Length of Day
11h 21m
Full, 100% of the Moon is Illuminated
Oct 12
Full
Oct 19
Last Quarter
Oct 26
New
Nov 2
First Quarter
Nov 10
Full

Hourly Weather History & Observations

Time (EDT) Temp. Dew Point Humidity Pressure Visibility Wind Dir Wind Speed Gust Speed Precip Events Conditions
12:15 AM 50.0 °F 50.0 °F 100% 30.10 in 0.2 mi East 13.8 mph 20.7 mph 0.04 in Rain Rain
12:35 AM 50.0 °F 50.0 °F 100% 30.10 in 0.2 mi East 12.7 mph 18.4 mph 0.12 in Rain Heavy Rain
1:15 AM 50.0 °F 50.0 °F 100% 30.07 in 0.2 mi East 11.5 mph - 0.01 in Rain Heavy Rain
1:35 AM 50.0 °F 50.0 °F 100% 30.07 in 0.2 mi East 11.5 mph 19.6 mph 0.03 in Rain Heavy Rain
1:55 AM 50.0 °F 50.0 °F 100% 30.06 in 0.2 mi East 17.3 mph 23.0 mph 0.01 in Rain Heavy Rain
2:15 AM 50.0 °F 50.0 °F 100% 30.06 in 0.2 mi East 15.0 mph 25.3 mph 0.01 in Rain Heavy Rain
2:35 AM 50.0 °F 50.0 °F 100% 30.05 in 0.2 mi East 13.8 mph 20.7 mph 0.01 in Rain Heavy Rain
2:55 AM 50.0 °F 50.0 °F 100% 30.03 in 0.2 mi East 13.8 mph 20.7 mph N/A Rain Heavy Rain
3:35 AM 50.0 °F 50.0 °F 100% 30.01 in 0.2 mi East 15.0 mph 20.7 mph 0.08 in Rain Heavy Rain
4:15 AM 50.0 °F 50.0 °F 100% 30.00 in 0.2 mi East 12.7 mph 21.9 mph 0.11 in Rain Heavy Rain
4:35 AM 51.8 °F 51.8 °F 100% 30.00 in 0.2 mi East 12.7 mph 20.7 mph 0.14 in Rain Heavy Rain
4:55 AM 51.8 °F 51.8 °F 100% 29.99 in 0.2 mi East 13.8 mph 23.0 mph N/A Rain Heavy Rain
5:15 AM 51.8 °F 51.8 °F 100% 30.00 in 0.2 mi East 12.7 mph 19.6 mph 0.03 in Rain Heavy Rain
5:35 AM 51.8 °F 51.8 °F 100% 29.99 in 0.2 mi East 10.4 mph 17.3 mph 0.22 in Rain Heavy Rain
5:55 AM 51.8 °F 51.8 °F 100% 29.97 in 0.2 mi East 15.0 mph 24.2 mph 0.05 in Rain Heavy Rain
6:15 AM 51.8 °F 51.8 °F 100% 29.98 in 0.2 mi East 11.5 mph 17.3 mph 0.13 in Rain Heavy Rain
6:35 AM 51.8 °F 51.8 °F 100% 29.97 in 0.2 mi East 10.4 mph 19.6 mph 0.22 in Rain Heavy Rain
6:55 AM 51.8 °F 51.8 °F 100% 29.98 in 0.2 mi East 12.7 mph 20.7 mph N/A Rain Heavy Rain
7:35 AM 51.8 °F 51.8 °F 100% 29.97 in 0.2 mi East 12.7 mph 19.6 mph 0.05 in Rain Heavy Rain
7:55 AM 53.6 °F 53.6 °F 100% 29.98 in 0.2 mi East 12.7 mph 19.6 mph 0.09 in Rain Heavy Rain
8:15 AM 53.6 °F 53.6 °F 100% 29.99 in 0.2 mi East 12.7 mph 16.1 mph 0.31 in Rain Heavy Rain
8:35 AM 53.6 °F 53.6 °F 100% 29.99 in 0.2 mi East 8.1 mph - 0.39 in Rain Rain
8:55 AM 53.6 °F 53.6 °F 100% 29.99 in 0.2 mi East 9.2 mph - N/A Rain Heavy Rain
9:15 AM 53.6 °F 53.6 °F 100% 29.99 in 0.2 mi East 6.9 mph - 0.01 in Rain Heavy Rain
9:35 AM 53.6 °F 53.6 °F 100% 29.99 in 0.2 mi East 6.9 mph - 0.01 in   Heavy Drizzle
10:15 AM 53.6 °F 53.6 °F 100% 29.99 in 0.2 mi East 9.2 mph - 0.02 in Rain Rain
10:35 AM 53.6 °F 53.6 °F 100% 29.99 in 0.2 mi East 6.9 mph - 0.04 in   Heavy Drizzle
11:15 AM 55.4 °F 55.4 °F 100% 29.98 in 0.2 mi East 6.9 mph - 0.01 in Rain Heavy Rain
11:35 AM 55.4 °F 55.4 °F 100% 29.98 in 0.2 mi East 6.9 mph - 0.02 in   Heavy Drizzle
11:55 AM 55.4 °F 55.4 °F 100% 29.97 in 0.2 mi East 8.1 mph - N/A Rain Heavy Rain
12:15 PM 55.4 °F 55.4 °F 100% 29.97 in 0.2 mi East 8.1 mph - 0.02 in   Heavy Drizzle
12:35 PM 55.4 °F 55.4 °F 100% 29.97 in 0.2 mi East 6.9 mph - 0.03 in   Heavy Drizzle
12:55 PM 55.4 °F 55.4 °F 100% 29.95 in 0.2 mi East 8.1 mph - 0.01 in   Heavy Drizzle
1:15 PM 55.4 °F 55.4 °F 100% 29.95 in 0.2 mi East 6.9 mph - 0.01 in Rain Heavy Rain
1:35 PM 55.4 °F 55.4 °F 100% 29.95 in 0.2 mi ENE 6.9 mph - 0.02 in   Heavy Drizzle
1:55 PM - - N/A% 29.95 in - North - - N/A   Unknown
2:15 PM 55.4 °F 55.4 °F 100% 29.94 in 0.2 mi East 6.9 mph - 0.01 in   Heavy Drizzle
2:35 PM 57.2 °F 57.2 °F 100% 29.94 in 0.2 mi East 6.9 mph - 0.02 in   Heavy Drizzle
3:15 PM 57.2 °F 57.2 °F 100% 29.94 in 0.2 mi East 4.6 mph - N/A Rain Heavy Rain
3:35 PM 57.2 °F 57.2 °F 100% 29.93 in 0.2 mi East 3.5 mph - 0.01 in   Heavy Drizzle
3:55 PM 57.2 °F 57.2 °F 100% 29.93 in 0.2 mi ENE 5.8 mph - 0.01 in   Heavy Drizzle
4:15 PM 57.2 °F 57.2 °F 100% 29.93 in 0.2 mi East 3.5 mph - 0.01 in   Heavy Drizzle
4:35 PM 57.2 °F 57.2 °F 100% 29.93 in 0.2 mi East 4.6 mph - 0.01 in   Heavy Drizzle
5:35 PM 57.2 °F 57.2 °F 100% 29.93 in 0.2 mi East 4.6 mph - 0.01 in   Heavy Drizzle
5:55 PM 57.2 °F 57.2 °F 100% 29.93 in 0.2 mi East 5.8 mph - N/A   Heavy Drizzle
6:15 PM 57.2 °F 57.2 °F 100% 29.93 in 0.2 mi East 4.6 mph - 0.01 in   Heavy Drizzle
6:35 PM 57.2 °F 57.2 °F 100% 29.93 in 0.2 mi East 4.6 mph - 0.01 in   Heavy Drizzle
6:55 PM 57.2 °F 57.2 °F 100% 29.93 in 0.2 mi East 4.6 mph - N/A Rain Heavy Rain
7:15 PM 57.2 °F 57.2 °F 100% 29.93 in 0.2 mi East 3.5 mph - N/A Rain Rain
7:35 PM 57.2 °F 57.2 °F 100% 29.93 in 0.2 mi ENE 6.9 mph - N/A   Heavy Drizzle
7:55 PM 57.2 °F 57.2 °F 100% 29.93 in 0.2 mi East 3.5 mph - N/A Rain Heavy Rain
8:15 PM 57.2 °F 57.2 °F 100% 29.93 in 0.2 mi Calm Calm - N/A Rain Heavy Rain
8:35 PM 57.2 °F 57.2 °F 100% 29.93 in 0.2 mi ENE 4.6 mph - N/A   Heavy Drizzle
8:55 PM 57.2 °F 57.2 °F 100% 29.93 in 0.2 mi ENE 3.5 mph - N/A   Heavy Drizzle
9:15 PM 57.2 °F 57.2 °F 100% 29.93 in 0.2 mi ENE 4.6 mph - N/A   Heavy Drizzle
9:35 PM 57.2 °F 57.2 °F 100% 29.93 in 0.2 mi Calm Calm - N/A Rain Rain
9:55 PM 57.2 °F 57.2 °F 100% 29.93 in 0.2 mi SE 3.5 mph - N/A   Heavy Drizzle
10:15 PM 57.2 °F 57.2 °F 100% 29.94 in 0.2 mi ESE 3.5 mph - 0.01 in   Heavy Drizzle
10:35 PM 57.2 °F 57.2 °F 100% 29.93 in 1.2 mi Calm Calm - 0.01 in   Overcast
10:55 PM 57.2 °F 57.2 °F 100% 29.93 in 0.2 mi Calm Calm - N/A Fog Fog
11:15 PM 57.2 °F 57.2 °F 100% 29.93 in 0.2 mi Calm Calm - N/A Fog Fog
11:35 PM 57.2 °F 57.2 °F 100% 29.93 in 0.5 mi Calm Calm - N/A Fog Fog
11:55 PM 57.2 °F 57.2 °F 100% 29.92 in 0.8 mi Calm Calm - N/A   Overcast